Location: Sternwarte Stuttgart
(48.7824°N, 9.1965°E)
Time: 00:26:43
(UTC+00:00)

ISS - Visible Passes

Search period start: 31 January 2023 00:00
Search period end: 10 February 2023 00:00
Orbit: 413 x 419 km, 51.6° (Epoch: 30 January)

Date Brightness Start Highest point End Pass type
(mag) Time Alt. Az. Time Alt. Az. Time Alt. Az.
31 Jan -2.6 18:19:45 10° WNW 18:22:55 38° SSW 18:23:38 33° S visible
01 Feb -3.2 17:30:58 10° WNW 17:34:17 56° SSW 17:37:26 11° SE visible
01 Feb -0.7 19:09:11 10° WSW 19:10:21 12° SW 19:10:21 12° SW visible
02 Feb -1.1 18:19:32 10° W 18:21:55 18° SW 18:24:18 10° S visible
03 Feb -1.7 17:30:25 10° W 17:33:20 27° SW 17:36:14 10° SSE visible
05 Feb -0.6 17:30:32 10° WSW 17:32:05 13° SW 17:33:39 10° SSW visible
